Saginaw Browne, MI

12:10 AM EDT on April 23, 2018 (GMT -0400)
Saginaw County-Browne

Weather History for KHYX - May, 2013

Change the Weather History Date:

Tuesday, May 21, 2013

  Actual Average (KMBS) Record (KMBS)
Temperature  
Mean Temperature 72 °F -  
Max Temperature 80 °F 65 °F 83 °F (2014)
Min Temperature 64 °F 44 °F 35 °F (2002)
Cooling Degree Days 7    
Growing Degree Days 22 (Base 50)    
Moisture  
Dew Point 64 °F    
Average Humidity 78    
Maximum Humidity 100    
Minimum Humidity 54    
Precipitation  
Precipitation 0.00 in - - ()
Sea Level Pressure  
Sea Level Pressure 29.75 in    
Wind  
Wind Speed 7 mph (SSW)    
Max Wind Speed 16 mph    
Max Gust Speed 24 mph    
Visibility 9 miles    
Events      
Averages and records for this station are not official NWS values.
T = Trace of Precipitation, MM = Missing Value Source: NWS Daily Summary

Daily Weather History Graph

Daily Weather History Graph

Search for Another Location

Airport or City:

Astronomy

May. 21, 2013 Rise Set
Actual Time 6:05 AM EDT 8:59 PM EDT
Civil Twilight 5:31 AM EDT 9:33 PM EDT
Nautical Twilight 4:48 AM EDT 10:16 PM EDT
Astronomical Twilight 3:58 AM EDT 11:06 PM EDT
Moon 5:06 PM EDT (5/21) 3:39 AM EDT (5/21)
Length of Visible Light 16h 02m
Length of Day
14h 54m
Waxing Gibbous, 84% of the Moon is Illuminated
May 21
Waxing Gibbous
May 25
Full
May 31
Last Quarter
Jun 8
New
Jun 16
First Quarter

Hourly Weather History & Observations

Time (EDT) Temp. Heat Index Dew Point Humidity Pressure Visibility Wind Dir Wind Speed Gust Speed Precip Events Conditions
12:12 AM 64.4 °F - 64.4 °F 100% 29.79 in 10.0 mi SSE 5.8 mph - N/A   Clear
12:32 AM 64.4 °F - 64.4 °F 100% 29.79 in 10.0 mi South 5.8 mph - N/A   Clear
12:52 AM 64.4 °F - 64.4 °F 100% 29.79 in 7.0 mi SSE 5.8 mph - N/A   Clear
1:14 AM 64.4 °F - 64.4 °F 100% 29.80 in 7.0 mi South 5.8 mph - N/A   Clear
1:39 AM 66.2 °F - 66.2 °F 100% 29.79 in 7.0 mi SSE 4.6 mph - N/A   Clear
1:45 AM 64.4 °F - 64.4 °F 100% 29.79 in 7.0 mi South 3.5 mph - N/A   Clear
1:53 AM 64.4 °F - 64.4 °F 100% 29.78 in 7.0 mi SSE 5.8 mph - N/A   Clear
2:13 AM 64.4 °F - 64.4 °F 100% 29.78 in 7.0 mi South 4.6 mph - N/A   Clear
2:34 AM 64.4 °F - 64.4 °F 100% 29.77 in 7.0 mi South 4.6 mph - N/A   Clear
2:54 AM 66.2 °F - 66.2 °F 100% 29.77 in 7.0 mi South 5.8 mph - N/A   Clear
3:14 AM 68.0 °F - 66.2 °F 94% 29.76 in 7.0 mi South 6.9 mph - N/A   Clear
3:35 AM 68.0 °F - 66.2 °F 94% 29.76 in 7.0 mi South 5.8 mph - N/A   Clear
3:55 AM 66.2 °F - 66.2 °F 100% 29.76 in 5.0 mi South 5.8 mph - N/A   Clear
4:12 AM 68.0 °F - 66.2 °F 94% 29.75 in 5.0 mi South 6.9 mph - N/A   Clear
4:32 AM 68.0 °F - 66.2 °F 94% 29.75 in 7.0 mi South 6.9 mph - N/A   Clear
4:52 AM 68.0 °F - 66.2 °F 94% 29.75 in 5.0 mi South 5.8 mph - N/A   Clear
5:13 AM 68.0 °F - 66.2 °F 94% 29.75 in 5.0 mi South 6.9 mph - N/A   Scattered Clouds
5:33 AM 68.0 °F - 68.0 °F 100% 29.76 in 5.0 mi South 9.2 mph - N/A   Scattered Clouds
5:53 AM 69.8 °F - 68.0 °F 94% 29.78 in 7.0 mi SW 9.2 mph - N/A   Mostly Cloudy
6:13 AM 69.8 °F - 68.0 °F 94% 29.80 in 7.0 mi WSW 15.0 mph 23.0 mph N/A   Overcast
6:33 AM 69.8 °F - 64.4 °F 83% 29.80 in 10.0 mi WSW 10.4 mph 21.9 mph N/A   Mostly Cloudy
6:53 AM 69.8 °F - 62.6 °F 78% 29.78 in 10.0 mi West 12.7 mph - N/A   Scattered Clouds
7:13 AM 68.0 °F - 62.6 °F 83% 29.76 in 10.0 mi WSW 9.2 mph - N/A   Clear
7:33 AM 68.0 °F - 62.6 °F 83% 29.75 in 10.0 mi Calm Calm - N/A   Clear
7:53 AM 68.0 °F - 64.4 °F 88% 29.73 in 10.0 mi ESE 4.6 mph - N/A   Clear
8:13 AM 69.8 °F - 64.4 °F 83% 29.73 in 10.0 mi Calm Calm - N/A   Clear
8:34 AM 69.8 °F - 64.4 °F 83% 29.75 in 10.0 mi SSW 4.6 mph - N/A   Clear
8:54 AM 71.6 °F - 64.4 °F 78% 29.75 in 10.0 mi SSW 5.8 mph - N/A   Clear
9:14 AM 71.6 °F - 64.4 °F 78% 29.77 in 10.0 mi South 8.1 mph - N/A   Clear
9:34 AM 71.6 °F - 64.4 °F 78% 29.77 in 10.0 mi SW 10.4 mph 16.1 mph N/A   Clear
9:54 AM 73.4 °F - 64.4 °F 73% 29.77 in 10.0 mi SSW 13.8 mph 17.3 mph N/A   Clear
10:14 AM 75.2 °F - 64.4 °F 69% 29.77 in 10.0 mi SW 13.8 mph - N/A   Clear
10:34 AM 75.2 °F - 64.4 °F 69% 29.78 in 7.0 mi SSW 15.0 mph 23.0 mph N/A   Scattered Clouds
10:54 AM 73.4 °F - 64.4 °F 73% 29.78 in 10.0 mi SW 12.7 mph 19.6 mph N/A   Scattered Clouds
11:14 AM 73.4 °F - 62.6 °F 69% 29.78 in 10.0 mi SSW 12.7 mph - N/A   Clear
11:34 AM 73.4 °F - 64.4 °F 73% 29.78 in 10.0 mi SSW 12.7 mph - N/A   Scattered Clouds
11:54 AM 73.4 °F - 62.6 °F 69% 29.77 in 10.0 mi SSW 10.4 mph - N/A   Scattered Clouds
12:14 PM 73.4 °F - 62.6 °F 69% 29.78 in 10.0 mi SW 6.9 mph - N/A   Scattered Clouds
12:35 PM 73.4 °F - 62.6 °F 69% 29.76 in 10.0 mi SW 9.2 mph - N/A   Scattered Clouds
12:55 PM 71.6 °F - 62.6 °F 73% 29.76 in 10.0 mi SSW 8.1 mph - N/A   Mostly Cloudy
1:15 PM 73.4 °F - 62.6 °F 69% 29.75 in 10.0 mi SSW 10.4 mph - N/A   Scattered Clouds
1:35 PM 73.4 °F - 62.6 °F 69% 29.75 in 10.0 mi SSW 11.5 mph 16.1 mph N/A   Mostly Cloudy
1:55 PM 73.4 °F - 62.6 °F 69% 29.75 in 10.0 mi SW 12.7 mph - N/A   Mostly Cloudy
2:15 PM 75.2 °F - 62.6 °F 65% 29.75 in 10.0 mi SW 11.5 mph 17.3 mph N/A   Scattered Clouds
2:30 PM 75.2 °F - 62.6 °F 65% 29.75 in 10.0 mi SSW 11.5 mph 18.4 mph N/A   Scattered Clouds
2:50 PM 77.0 °F - 64.4 °F 65% 29.74 in 10.0 mi SW 13.8 mph - N/A   Scattered Clouds
3:11 PM 77.0 °F - 64.4 °F 65% 29.74 in 10.0 mi SW 10.4 mph - N/A   Clear
3:31 PM 77.0 °F - 64.4 °F 65% 29.74 in 10.0 mi SW 11.5 mph - N/A   Clear
3:51 PM 78.8 °F - 64.4 °F 61% 29.73 in 10.0 mi SW 9.2 mph 17.3 mph N/A   Clear
4:11 PM 78.8 °F - 62.6 °F 57% 29.73 in 10.0 mi WSW 11.5 mph 17.3 mph N/A   Scattered Clouds
4:31 PM 80.6 °F 82.3 °F 64.4 °F 58% 29.73 in 10.0 mi WSW 10.4 mph - N/A   Scattered Clouds
4:51 PM 78.8 °F - 62.6 °F 57% 29.72 in 10.0 mi WSW 8.1 mph - N/A   Mostly Cloudy
5:11 PM 80.6 °F 81.8 °F 62.6 °F 54% 29.71 in 10.0 mi SW 5.8 mph - N/A   Scattered Clouds
5:31 PM 78.8 °F - 62.6 °F 57% 29.72 in 10.0 mi SSW 11.5 mph - N/A   Scattered Clouds
5:51 PM 75.2 °F - 60.8 °F 61% 29.73 in 10.0 mi WNW 16.1 mph 24.2 mph N/A   Mostly Cloudy
6:11 PM 77.0 °F - 62.6 °F 61% 29.72 in 10.0 mi WNW 6.9 mph - N/A   Scattered Clouds
6:31 PM 78.8 °F - 62.6 °F 57% 29.72 in 10.0 mi West 3.5 mph - N/A   Clear
6:51 PM 78.8 °F - 62.6 °F 57% 29.71 in 10.0 mi West 3.5 mph - N/A   Clear
7:11 PM 78.8 °F - 62.6 °F 57% 29.71 in 10.0 mi West 4.6 mph - N/A   Clear
7:32 PM 78.8 °F - 62.6 °F 57% 29.72 in 10.0 mi WSW 4.6 mph - N/A   Clear
7:52 PM 78.8 °F - 62.6 °F 57% 29.72 in 10.0 mi SW 8.1 mph - N/A   Clear
8:12 PM 77.0 °F - 62.6 °F 61% 29.72 in 10.0 mi SSW 6.9 mph - N/A   Clear
8:32 PM 75.2 °F - 62.6 °F 65% 29.71 in 10.0 mi SSW 6.9 mph - N/A   Clear
8:52 PM 73.4 °F - 62.6 °F 69% 29.71 in 10.0 mi SSW 6.9 mph - N/A   Clear
9:12 PM 71.6 °F - 62.6 °F 73% 29.71 in 10.0 mi South 3.5 mph - N/A   Clear
9:32 PM 69.8 °F - 64.4 °F 83% 29.71 in 10.0 mi Calm Calm - N/A   Clear
9:52 PM 71.6 °F - 62.6 °F 73% 29.72 in 10.0 mi Calm Calm - N/A   Clear
10:13 PM 69.8 °F - 62.6 °F 78% 29.72 in 10.0 mi Calm Calm - N/A   Clear
10:33 PM 68.0 °F - 62.6 °F 83% 29.73 in 10.0 mi Calm Calm - N/A   Clear
10:53 PM 68.0 °F - 62.6 °F 83% 29.73 in 10.0 mi SSE 4.6 mph - N/A   Scattered Clouds
11:13 PM 66.2 °F - 64.4 °F 94% 29.73 in 10.0 mi SSE 4.6 mph - N/A   Scattered Clouds
11:33 PM 64.4 °F - 64.4 °F 100% 29.73 in 10.0 mi Calm Calm - N/A   Scattered Clouds
11:53 PM 66.2 °F - 62.6 °F 88% 29.72 in 10.0 mi South 3.5 mph - N/A   Scattered Clouds